When you browse on this site, cookies collect data to enhance your experience and personalize the content and advertising you see.
Visit our Privacy Policy to learn more. By continuing to use the site, you agree to this use of cookies and data.
  • In Switzerland
  • List of Countries
  • For 7 days
  • Water Temperature
  • Weather Map
  • Weather Widgets
  • user-avatar
    Login

    Hourly Weather Szombathely

    Today, 5 June, Friday

    Time Temperature Precipitation Wind Pressure Humidity
    00:00 +17°C° 0 mm 6 mps 729 mmHg 64%
    01:00 +17°C° 0 mm 5 mps 729 mmHg 66%
    02:00 +17°C° 0.1 mm 4 mps 729 mmHg 71%
    03:00 +15°C° 0.1 mm 4 mps 729 mmHg 77%
    04:00 +14°C° 0.1 mm 3 mps 728 mmHg 82%
    05:00 +14°C° 0.9 mm 3 mps 729 mmHg 86%
    06:00 +16°C° 0.9 mm 3 mps 729 mmHg 89%
    07:00 +16°C° 0.9 mm 3 mps 729 mmHg 92%
    08:00 +14°C° 2.2 mm 3 mps 730 mmHg 93%
    09:00 +14°C° 2.2 mm 3 mps 730 mmHg 94%
    10:00 +13°C° 2.2 mm 3 mps 730 mmHg 95%
    11:00 +13°C° 0.6 mm 3 mps 730 mmHg 94%
    12:00 +14°C° 0.6 mm 2 mps 731 mmHg 93%
    13:00 +14°C° 0.6 mm 2 mps 731 mmHg 92%
    14:00 +15°C° 0.1 mm 2 mps 731 mmHg 90%
    15:00 +15°C° 0.1 mm 1 mps 731 mmHg 89%
    16:00 +15°C° 0.1 mm 1 mps 732 mmHg 88%
    17:00 +15°C° 0 mm 1 mps 732 mmHg 88%
    18:00 +15°C° 0 mm 1 mps 732 mmHg 89%
    19:00 +15°C° 0 mm 1 mps 732 mmHg 90%
    20:00 +14°C° 0 mm 2 mps 733 mmHg 91%
    21:00 +14°C° 0 mm 2 mps 734 mmHg 92%
    22:00 +13°C° 0 mm 2 mps 735 mmHg 93%
    23:00 +13°C° 0 mm 2 mps 735 mmHg 93%

    Tomorrow, 6 June, Saturday

    Time Temperature Precipitation Wind Pressure Humidity
    00:00 +12°C° 0 mm 2 mps 735 mmHg 92%
    01:00 +12°C° 0 mm 1 mps 736 mmHg 92%
    02:00 +12°C° 0 mm 1 mps 736 mmHg 91%
    03:00 +12°C° 0 mm 1 mps 736 mmHg 90%
    04:00 +12°C° 0 mm 1 mps 737 mmHg 90%
    05:00 +13°C° 0 mm 1 mps 737 mmHg 86%
    06:00 +15°C° 0 mm 1 mps 737 mmHg 81%
    07:00 +16°C° 0 mm 1 mps 738 mmHg 77%
    08:00 +19°C° 0 mm 1 mps 738 mmHg 73%
    09:00 +19°C° 0 mm 2 mps 738 mmHg 68%
    10:00 +20°C° 0 mm 3 mps 738 mmHg 63%
    11:00 +21°C° 0.1 mm 3 mps 737 mmHg 63%
    12:00 +22°C° 0.1 mm 3 mps 737 mmHg 63%
    13:00 +24°C° 0.1 mm 3 mps 737 mmHg 63%
    14:00 +24°C° 0.1 mm 3 mps 736 mmHg 63%
    15:00 +24°C° 0.1 mm 3 mps 736 mmHg 63%
    16:00 +25°C° 0.1 mm 2 mps 735 mmHg 64%
    17:00 +23°C° 0.1 mm 2 mps 735 mmHg 70%
    18:00 +21°C° 0.1 mm 2 mps 735 mmHg 77%
    19:00 +20°C° 0.1 mm 2 mps 735 mmHg 83%
    20:00 +19°C° 0 mm 2 mps 735 mmHg 86%
    21:00 +18°C° 0 mm 2 mps 735 mmHg 89%
    22:00 +18°C° 0 mm 1 mps 736 mmHg 92%
    23:00 +18°C° 0 mm 1 mps 736 mmHg 93%

    Day after tomorrow, 7 June, Sunday

    Time Temperature Precipitation Wind Pressure Humidity
    00:00 +16°C° 0 mm 1 mps 736 mmHg 93%
    01:00 +16°C° 0 mm 1 mps 736 mmHg 93%
    02:00 +16°C° 0 mm 1 mps 736 mmHg 93%
    03:00 +15°C° 0 mm 1 mps 736 mmHg 94%
    04:00 +15°C° 0 mm 1 mps 735 mmHg 94%
    05:00 +16°C° 0 mm 2 mps 736 mmHg 92%
    06:00 +17°C° 0 mm 2 mps 736 mmHg 89%
    07:00 +18°C° 0 mm 3 mps 736 mmHg 86%
    08:00 +20°C° 0 mm 2 mps 736 mmHg 81%
    09:00 +21°C° 0 mm 2 mps 737 mmHg 75%
    10:00 +23°C° 0 mm 2 mps 737 mmHg 69%
    11:00 +24°C° 0 mm 2 mps 737 mmHg 65%
    12:00 +25°C° 0 mm 1 mps 737 mmHg 61%
    13:00 +26°C° 0 mm 1 mps 737 mmHg 57%
    14:00 +26°C° 0.8 mm 1 mps 737 mmHg 62%
    15:00 +25°C° 0.8 mm 2 mps 736 mmHg 67%
    16:00 +24°C° 0.8 mm 2 mps 736 mmHg 72%
    17:00 +22°C° 0.9 mm 3 mps 736 mmHg 77%
    18:00 +20°C° 0.9 mm 4 mps 737 mmHg 81%
    19:00 +17°C° 0.9 mm 5 mps 737 mmHg 86%
    20:00 +17°C° 0.2 mm 4 mps 737 mmHg 86%
    21:00 +15°C° 0.2 mm 4 mps 737 mmHg 87%
    22:00 +14°C° 0.2 mm 4 mps 738 mmHg 87%
    23:00 +14°C° 0 mm 3 mps 738 mmHg 86%

    8 June, Monday

    Time Temperature Precipitation Wind Pressure Humidity
    00:00 +14°C° 0 mm 3 mps 738 mmHg 86%
    01:00 +15°C° 0 mm 2 mps 738 mmHg 86%
    02:00 +15°C° 0 mm 2 mps 738 mmHg 86%
    03:00 +14°C° 0 mm 2 mps 738 mmHg 86%
    04:00 +14°C° 0 mm 2 mps 738 mmHg 86%
    05:00 +15°C° 0.1 mm 2 mps 738 mmHg 85%
    06:00 +14°C° 0.1 mm 3 mps 738 mmHg 85%
    07:00 +14°C° 0.1 mm 3 mps 738 mmHg 84%
    08:00 +15°C° 0.1 mm 2 mps 738 mmHg 84%
    09:00 +16°C° 0.1 mm 2 mps 738 mmHg 84%
    10:00 +16°C° 0.1 mm 2 mps 739 mmHg 85%
    11:00 +17°C° 0 mm 2 mps 739 mmHg 81%
    12:00 +18°C° 0 mm 2 mps 739 mmHg 78%
    13:00 +19°C° 0 mm 2 mps 739 mmHg 74%
    14:00 +19°C° 0 mm 2 mps 738 mmHg 73%
    15:00 +20°C° 0 mm 2 mps 738 mmHg 72%
    16:00 +20°C° 0 mm 2 mps 738 mmHg 71%
    17:00 +19°C° 0 mm 2 mps 738 mmHg 74%
    18:00 +19°C° 0 mm 2 mps 738 mmHg 77%
    19:00 +18°C° 0 mm 3 mps 738 mmHg 80%
    20:00 +17°C° 0.1 mm 3 mps 738 mmHg 82%
    21:00 +17°C° 0.1 mm 3 mps 738 mmHg 83%
    22:00 +16°C° 0.1 mm 3 mps 739 mmHg 85%
    23:00 +14°C° 0.2 mm 3 mps 739 mmHg 86%

    9 June, Tuesday

    Time Temperature Precipitation Wind Pressure Humidity
    00:00 +14°C° 0.2 mm 3 mps 739 mmHg 87%
    01:00 +14°C° 0.2 mm 3 mps 738 mmHg 89%
    02:00 +13°C° 0.5 mm 3 mps 738 mmHg 89%
    03:00 +13°C° 0.5 mm 3 mps 738 mmHg 90%
    04:00 +13°C° 0.5 mm 3 mps 738 mmHg 90%
    05:00 +13°C° 0.4 mm 3 mps 738 mmHg 91%
    06:00 +13°C° 0.4 mm 3 mps 739 mmHg 92%
    07:00 +13°C° 0.4 mm 3 mps 739 mmHg 92%
    08:00 +13°C° 0.7 mm 3 mps 739 mmHg 93%
    09:00 +13°C° 0.7 mm 4 mps 739 mmHg 94%
    10:00 +14°C° 0.7 mm 4 mps 740 mmHg 94%
    11:00 +14°C° 1.5 mm 4 mps 740 mmHg 94%
    12:00 +14°C° 1.5 mm 4 mps 740 mmHg 94%
    13:00 +14°C° 1.5 mm 4 mps 740 mmHg 94%
    14:00 +14°C° 0.3 mm 3 mps 740 mmHg 93%
    15:00 +14°C° 0.3 mm 3 mps 740 mmHg 91%
    16:00 +16°C° 0.3 mm 3 mps 740 mmHg 89%
    17:00 +16°C° 0 mm 3 mps 740 mmHg 89%
    18:00 +15°C° 0 mm 2 mps 740 mmHg 89%
    19:00 +15°C° 0 mm 2 mps 740 mmHg 90%
    20:00 +14°C° 0 mm 2 mps 741 mmHg 91%
    21:00 +14°C° 0 mm 2 mps 741 mmHg 91%
    22:00 +13°C° 0 mm 1 mps 741 mmHg 92%
    23:00 +13°C° 0 mm 1 mps 741 mmHg 93%

    10 June, Wednesday

    Time Temperature Precipitation Wind Pressure Humidity
    00:00 +13°C° 0 mm 1 mps 741 mmHg 93%
    01:00 +12°C° 0 mm 1 mps 741 mmHg 93%
    02:00 +12°C° 0 mm 1 mps 742 mmHg 93%
    03:00 +12°C° 0 mm 1 mps 742 mmHg 92%
    04:00 +12°C° 0 mm 1 mps 742 mmHg 92%
    05:00 +13°C° 0 mm 1 mps 742 mmHg 88%
    06:00 +15°C° 0 mm 1 mps 742 mmHg 84%
    07:00 +18°C° 0 mm 1 mps 742 mmHg 80%
    08:00 +19°C° 0 mm 1 mps 743 mmHg 74%
    09:00 +21°C° 0 mm 1 mps 743 mmHg 67%
    10:00 +21°C° 0 mm 2 mps 743 mmHg 61%
    11:00 +23°C° 0 mm 2 mps 743 mmHg 60%
    12:00 +23°C° 0 mm 2 mps 743 mmHg 59%
    13:00 +24°C° 0 mm 2 mps 743 mmHg 58%
    14:00 +24°C° 0.1 mm 2 mps 742 mmHg 58%
    15:00 +24°C° 0.1 mm 2 mps 742 mmHg 59%
    16:00 +24°C° 0.1 mm 1 mps 742 mmHg 59%
    17:00 +23°C° 0.2 mm 1 mps 742 mmHg 66%
    18:00 +22°C° 0.2 mm 1 mps 742 mmHg 73%
    19:00 +21°C° 0.2 mm 1 mps 742 mmHg 80%
    20:00 +19°C° 0.1 mm 1 mps 743 mmHg 83%
    21:00 +18°C° 0.1 mm 1 mps 743 mmHg 87%
    22:00 +16°C° 0.1 mm 2 mps 743 mmHg 91%
    23:00 +16°C° 0 mm 2 mps 743 mmHg 92%
    Show more